TimeEDT,TemperatureF,Dew PointF,Humidity,Sea Level PressureIn,VisibilityMPH,Wind Direction,Wind SpeedMPH,Gust SpeedMPH,PrecipitationIn,Events,Conditions,WindDirDegrees,DateUTC
12:00 AM,70.0,69.1,97,29.98,7.0,SSW,10.4,-,N/A,,Drizzle,200,1959-08-18 04:00:00
1:00 AM,71.1,69.1,93,30.00,5.0,SW,11.5,-,N/A,,Drizzle,220,1959-08-18 05:00:00
2:00 AM,71.1,69.1,93,29.99,5.0,SW,9.2,-,N/A,,Drizzle,220,1959-08-18 06:00:00
3:00 AM,71.1,69.1,93,29.99,5.0,SW,10.4,-,N/A,,Drizzle,220,1959-08-18 07:00:00
4:00 AM,71.1,69.1,93,29.99,5.0,WSW,9.2,-,N/A,,Drizzle,250,1959-08-18 08:00:00
5:00 AM,70.0,69.1,97,29.99,5.0,SW,9.2,-,N/A,,Drizzle,220,1959-08-18 09:00:00
6:00 AM,70.0,68.0,93,30.01,4.0,SW,8.1,-,N/A,,Drizzle,220,1959-08-18 10:00:00
7:00 AM,70.0,69.1,97,30.03,4.0,SW,8.1,-,N/A,,Drizzle,220,1959-08-18 11:00:00
8:00 AM,71.1,69.1,93,30.06,4.0,SW,8.1,-,N/A,,Drizzle,220,1959-08-18 12:00:00
9:00 AM,72.0,70.0,93,30.08,4.0,WNW,8.1,-,N/A,,Drizzle,290,1959-08-18 13:00:00
10:00 AM,73.9,68.0,82,30.09,5.0,NW,6.9,-,N/A,,Drizzle,320,1959-08-18 14:00:00
11:00 AM,75.9,66.0,71,30.10,7.0,NW,5.8,-,N/A,,Drizzle,320,1959-08-18 15:00:00
12:00 PM,79.0,64.9,62,30.11,10.0,NW,11.5,-,N/A,,Drizzle,320,1959-08-18 16:00:00
1:00 PM,81.0,64.9,58,30.10,10.0,WNW,4.6,-,N/A,,Drizzle,290,1959-08-18 17:00:00
2:00 PM,82.9,64.0,53,30.10,15.0,NNE,6.9,-,N/A,,Drizzle,20,1959-08-18 18:00:00
3:00 PM,82.9,63.0,51,30.09,15.0,NW,8.1,-,N/A,,Drizzle,320,1959-08-18 19:00:00
4:00 PM,82.9,61.0,47,30.09,15.0,NNE,8.1,-,N/A,,Drizzle,20,1959-08-18 20:00:00
5:00 PM,81.0,60.1,49,30.08,10.0,NE,6.9,-,N/A,,Drizzle,40,1959-08-18 21:00:00
6:00 PM,81.0,60.1,49,30.09,10.0,North,11.5,-,N/A,,Drizzle,360,1959-08-18 22:00:00
7:00 PM,78.1,60.1,54,30.10,10.0,North,9.2,-,N/A,,Drizzle,360,1959-08-18 23:00:00
8:00 PM,75.9,60.1,58,30.11,10.0,NNE,6.9,-,N/A,,Drizzle,20,1959-08-19 00:00:00
9:00 PM,72.0,60.1,66,30.12,10.0,North,6.9,-,N/A,,Drizzle,360,1959-08-19 01:00:00
10:00 PM,70.0,60.1,71,30.15,15.0,NNE,5.8,-,N/A,,Drizzle,20,1959-08-19 02:00:00
11:00 PM,69.1,61.0,75,30.16,15.0,NE,5.8,-,N/A,,Drizzle,40,1959-08-19 03:00:00